Year,Month,Day,Hour,Minute,Value (Times are PST for temperature in C)
2009,05,29,00,00,12.60
2009,05,29,00,01,12.60
2009,05,29,00,02,12.60
2009,05,29,00,03,12.50
2009,05,29,00,04,12.50
2009,05,29,00,05,12.50
2009,05,29,00,06,12.50
2009,05,29,00,07,12.40
2009,05,29,00,08,12.40
2009,05,29,00,09,12.40
2009,05,29,00,10,12.40
2009,05,29,00,11,12.40
2009,05,29,00,12,12.40
2009,05,29,00,13,12.40
2009,05,29,00,14,12.40
2009,05,29,00,15,12.30
2009,05,29,00,16,12.30
2009,05,29,00,17,12.30
2009,05,29,00,18,12.30
2009,05,29,00,19,12.30
2009,05,29,00,20,12.30
2009,05,29,00,21,12.30
2009,05,29,00,22,12.30
2009,05,29,00,23,12.20
2009,05,29,00,24,12.20
2009,05,29,00,25,12.20
2009,05,29,00,26,12.20
2009,05,29,00,27,12.20
2009,05,29,00,28,12.20
2009,05,29,00,29,12.20
2009,05,29,00,30,12.20
2009,05,29,00,31,12.20
2009,05,29,00,32,12.10
2009,05,29,00,33,12.10
2009,05,29,00,34,12.10
2009,05,29,00,35,12.10
2009,05,29,00,36,12.10
2009,05,29,00,37,12.10
2009,05,29,00,38,12.10
2009,05,29,00,39,12.10
2009,05,29,00,40,12.10
2009,05,29,00,41,12.10
2009,05,29,00,42,12.10
2009,05,29,00,43,12.00
2009,05,29,00,44,12.00
2009,05,29,00,45,12.00
2009,05,29,00,46,12.00
2009,05,29,00,47,12.00
2009,05,29,00,48,12.00
2009,05,29,00,49,11.90
2009,05,29,00,50,11.90
2009,05,29,00,51,11.90
2009,05,29,00,52,11.90
2009,05,29,00,53,11.90
2009,05,29,00,54,11.90
2009,05,29,00,55,11.80
2009,05,29,00,56,11.80
2009,05,29,00,57,11.80
2009,05,29,00,58,11.80
2009,05,29,00,59,11.80
2009,05,29,01,00,11.80
2009,05,29,01,01,11.80
2009,05,29,01,02,11.80
2009,05,29,01,03,11.70
2009,05,29,01,04,11.70
2009,05,29,01,05,11.70
2009,05,29,01,06,11.70
2009,05,29,01,07,11.70
2009,05,29,01,08,11.70
2009,05,29,01,09,11.70
2009,05,29,01,10,11.70
2009,05,29,01,11,11.60
2009,05,29,01,12,11.60
2009,05,29,01,13,11.60
2009,05,29,01,14,11.60
2009,05,29,01,15,11.60
2009,05,29,01,16,11.60
2009,05,29,01,17,11.60
2009,05,29,01,18,11.60
2009,05,29,01,19,11.60
2009,05,29,01,20,11.50
2009,05,29,01,21,11.50
2009,05,29,01,22,11.50
2009,05,29,01,23,11.50
2009,05,29,01,24,11.50
2009,05,29,01,25,11.50
2009,05,29,01,26,11.40
2009,05,29,01,27,11.40
2009,05,29,01,28,11.40
2009,05,29,01,29,11.40
2009,05,29,01,30,11.40
2009,05,29,01,31,11.40
2009,05,29,01,32,11.40
2009,05,29,01,33,11.30
2009,05,29,01,34,11.30
2009,05,29,01,35,11.30
2009,05,29,01,36,11.30
2009,05,29,01,37,11.30
2009,05,29,01,38,11.30
2009,05,29,01,39,11.30
2009,05,29,01,40,11.30
2009,05,29,01,41,11.20
2009,05,29,01,42,11.20
2009,05,29,01,43,11.20
2009,05,29,01,44,11.20
2009,05,29,01,45,11.20
2009,05,29,01,46,11.20
2009,05,29,01,47,11.20
2009,05,29,01,48,11.20
2009,05,29,01,49,11.10
2009,05,29,01,50,11.10
2009,05,29,01,51,11.10
2009,05,29,01,52,11.10
2009,05,29,01,53,11.10
2009,05,29,01,54,11.10
2009,05,29,01,55,11.10
2009,05,29,01,56,11.10
2009,05,29,01,57,11.10
2009,05,29,01,58,11.10
2009,05,29,01,59,11.10
2009,05,29,02,00,11.10
2009,05,29,02,01,11.10
2009,05,29,02,02,11.10
2009,05,29,02,03,11.10
2009,05,29,02,04,11.10
2009,05,29,02,05,11.00
2009,05,29,02,06,11.00
2009,05,29,02,07,11.00
2009,05,29,02,08,11.00
2009,05,29,02,09,11.00
2009,05,29,02,10,11.00
2009,05,29,02,11,11.00
2009,05,29,02,12,11.00
2009,05,29,02,13,10.90
2009,05,29,02,14,10.90
2009,05,29,02,15,10.90
2009,05,29,02,16,10.90
2009,05,29,02,17,10.90
2009,05,29,02,18,10.90
2009,05,29,02,19,10.90
2009,05,29,02,20,10.90
2009,05,29,02,21,10.90
2009,05,29,02,22,10.90
2009,05,29,02,23,10.80
2009,05,29,02,24,10.80
2009,05,29,02,25,10.80
2009,05,29,02,26,10.80
2009,05,29,02,27,10.80
2009,05,29,02,28,10.80
2009,05,29,02,29,10.80
2009,05,29,02,30,10.70
2009,05,29,02,31,10.70
2009,05,29,02,32,10.70
2009,05,29,02,33,10.70
2009,05,29,02,34,10.70
2009,05,29,02,35,10.70
2009,05,29,02,36,10.70
2009,05,29,02,37,10.70
2009,05,29,02,38,10.70
2009,05,29,02,39,10.70
2009,05,29,02,40,10.60
2009,05,29,02,41,10.60
2009,05,29,02,42,10.60
2009,05,29,02,43,10.60
2009,05,29,02,44,10.60
2009,05,29,02,45,10.60
2009,05,29,02,46,10.60
2009,05,29,02,47,10.60
2009,05,29,02,48,10.60
2009,05,29,02,49,10.60
2009,05,29,02,50,10.60
2009,05,29,02,51,10.60
2009,05,29,02,52,10.60
2009,05,29,02,53,10.50
2009,05,29,02,54,10.50
2009,05,29,02,55,10.50
2009,05,29,02,56,10.50
2009,05,29,02,57,10.50
2009,05,29,02,58,10.40
2009,05,29,02,59,10.40
2009,05,29,03,00,10.40
2009,05,29,03,01,10.40
2009,05,29,03,02,10.40
2009,05,29,03,03,10.40
2009,05,29,03,04,10.40
2009,05,29,03,05,10.40
2009,05,29,03,06,10.40
2009,05,29,03,07,10.30
2009,05,29,03,08,10.30
2009,05,29,03,09,10.30
2009,05,29,03,10,10.30
2009,05,29,03,11,10.30
2009,05,29,03,12,10.30
2009,05,29,03,13,10.30
2009,05,29,03,14,10.30
2009,05,29,03,15,10.30
2009,05,29,03,16,10.30
2009,05,29,03,17,10.30
2009,05,29,03,18,10.30
2009,05,29,03,19,10.30
2009,05,29,03,20,10.30
2009,05,29,03,21,10.30
2009,05,29,03,22,10.30
2009,05,29,03,23,10.30
2009,05,29,03,24,10.30
2009,05,29,03,25,10.30
2009,05,29,03,26,10.30
2009,05,29,03,27,10.30
2009,05,29,03,28,10.20
2009,05,29,03,29,10.20
2009,05,29,03,30,10.20
2009,05,29,03,31,10.20
2009,05,29,03,32,10.20
2009,05,29,03,33,10.20
2009,05,29,03,34,10.20
2009,05,29,03,35,10.20
2009,05,29,03,36,10.10
2009,05,29,03,37,10.10
2009,05,29,03,38,10.10
2009,05,29,03,39,10.10
2009,05,29,03,40,10.10
2009,05,29,03,41,10.10
2009,05,29,03,42,10.10
2009,05,29,03,43,10.10
2009,05,29,03,44,10.10
2009,05,29,03,45,10.10
2009,05,29,03,46,10.10
2009,05,29,03,47,10.10
2009,05,29,03,48,10.10
2009,05,29,03,49,10.10
2009,05,29,03,50,10.10
2009,05,29,03,51,10.00
2009,05,29,03,52,10.00
2009,05,29,03,53,10.00
2009,05,29,03,54,10.00
2009,05,29,03,55,10.00
2009,05,29,03,56,10.00
2009,05,29,03,57,10.00
2009,05,29,03,58,10.00
2009,05,29,03,59,10.00
2009,05,29,04,00,10.00
2009,05,29,04,01,10.00
2009,05,29,04,02,10.00
2009,05,29,04,03,10.00
2009,05,29,04,04,10.00
2009,05,29,04,05,10.00
2009,05,29,04,06,10.00
2009,05,29,04,07,10.00
2009,05,29,04,08,10.00
2009,05,29,04,09,10.00
2009,05,29,04,10,10.00
2009,05,29,04,11,10.00
2009,05,29,04,12,10.00
2009,05,29,04,13,10.00
2009,05,29,04,14,9.90
2009,05,29,04,15,9.90
2009,05,29,04,16,9.90
2009,05,29,04,17,9.90
2009,05,29,04,18,9.90
2009,05,29,04,19,9.90
2009,05,29,04,20,9.90
2009,05,29,04,21,9.90
2009,05,29,04,22,9.90
2009,05,29,04,23,9.90
2009,05,29,04,24,9.90
2009,05,29,04,25,9.90
2009,05,29,04,26,9.90
2009,05,29,04,27,9.90
2009,05,29,04,28,9.90
2009,05,29,04,29,9.80
2009,05,29,04,30,9.80
2009,05,29,04,31,9.80
2009,05,29,04,32,9.80
2009,05,29,04,33,9.80
2009,05,29,04,34,9.80
2009,05,29,04,35,9.80
2009,05,29,04,36,9.80
2009,05,29,04,37,9.80
2009,05,29,04,38,9.80
2009,05,29,04,39,9.80
2009,05,29,04,40,9.80
2009,05,29,04,41,9.80
2009,05,29,04,42,9.80
2009,05,29,04,43,9.70
2009,05,29,04,44,9.80
2009,05,29,04,45,9.80
2009,05,29,04,46,9.70
2009,05,29,04,47,9.70
2009,05,29,04,48,9.70
2009,05,29,04,49,9.70
2009,05,29,04,50,9.70
2009,05,29,04,51,9.70
2009,05,29,04,52,9.70
2009,05,29,04,53,9.70
2009,05,29,04,54,9.70
2009,05,29,04,55,9.70
2009,05,29,04,56,9.70
2009,05,29,04,57,9.70
2009,05,29,04,58,9.70
2009,05,29,04,59,9.70
2009,05,29,05,00,9.70
2009,05,29,05,01,9.70
2009,05,29,05,02,9.70
2009,05,29,05,03,9.70
2009,05,29,05,04,9.70
2009,05,29,05,05,9.70
2009,05,29,05,06,9.70
2009,05,29,05,07,9.70
2009,05,29,05,08,9.70
2009,05,29,05,09,9.70
2009,05,29,05,10,9.70
2009,05,29,05,11,9.70
2009,05,29,05,12,9.70
2009,05,29,05,13,9.60
2009,05,29,05,14,9.60
2009,05,29,05,15,9.60
2009,05,29,05,16,9.60
2009,05,29,05,17,9.60
2009,05,29,05,18,9.60
2009,05,29,05,19,9.60
2009,05,29,05,20,9.60
2009,05,29,05,21,9.60
2009,05,29,05,22,9.60
2009,05,29,05,23,9.60
2009,05,29,05,24,9.60
2009,05,29,05,25,9.60
2009,05,29,05,26,9.60
2009,05,29,05,27,9.60
2009,05,29,05,28,9.60
2009,05,29,05,29,9.60
2009,05,29,05,30,9.60
2009,05,29,05,31,9.60
2009,05,29,05,32,9.50
2009,05,29,05,33,9.50
2009,05,29,05,34,9.50
2009,05,29,05,35,9.50
2009,05,29,05,36,9.50
2009,05,29,05,37,9.50
2009,05,29,05,38,9.40
2009,05,29,05,39,9.40
2009,05,29,05,40,9.40
2009,05,29,05,41,9.40
2009,05,29,05,42,9.40
2009,05,29,05,43,9.40
2009,05,29,05,44,9.40
2009,05,29,05,45,9.40
2009,05,29,05,46,9.40
2009,05,29,05,47,9.40
2009,05,29,05,48,9.40
2009,05,29,05,49,9.40
2009,05,29,05,50,9.40
2009,05,29,05,51,9.40
2009,05,29,05,52,9.40
2009,05,29,05,53,9.40
2009,05,29,05,54,9.40
2009,05,29,05,55,9.40
2009,05,29,05,56,9.40
2009,05,29,05,57,9.40
2009,05,29,05,58,9.40
2009,05,29,05,59,9.40
2009,05,29,06,00,9.40
2009,05,29,06,01,9.40
2009,05,29,06,02,9.40
2009,05,29,06,03,9.40
2009,05,29,06,04,9.40
2009,05,29,06,05,9.40
2009,05,29,06,06,9.40
2009,05,29,06,07,9.40
2009,05,29,06,08,9.40
2009,05,29,06,09,9.40
2009,05,29,06,10,9.40
2009,05,29,06,11,9.40
2009,05,29,06,12,9.40
2009,05,29,06,13,9.40
2009,05,29,06,14,9.40
2009,05,29,06,15,9.40
2009,05,29,06,16,9.40
2009,05,29,06,17,9.40
2009,05,29,06,18,9.40
2009,05,29,06,19,9.40
2009,05,29,06,20,9.40
2009,05,29,06,21,9.40
2009,05,29,06,22,9.40
2009,05,29,06,23,9.40
2009,05,29,06,24,9.40
2009,05,29,06,25,9.40
2009,05,29,06,26,9.40
2009,05,29,06,27,9.40
2009,05,29,06,28,9.40
2009,05,29,06,29,9.40
2009,05,29,06,30,9.40
2009,05,29,06,31,9.40
2009,05,29,06,32,9.40
2009,05,29,06,33,9.40
2009,05,29,06,34,9.40
2009,05,29,06,35,9.40
2009,05,29,06,36,9.40
2009,05,29,06,37,9.40
2009,05,29,06,38,9.50
2009,05,29,06,39,9.50
2009,05,29,06,40,9.40
2009,05,29,06,41,9.50
2009,05,29,06,42,9.50
2009,05,29,06,43,9.50
2009,05,29,06,44,9.50
2009,05,29,06,45,9.50
2009,05,29,06,46,9.50
2009,05,29,06,47,9.50
2009,05,29,06,48,9.50
2009,05,29,06,49,9.50
2009,05,29,06,50,9.50
2009,05,29,06,51,9.60
2009,05,29,06,52,9.60
2009,05,29,06,53,9.60
2009,05,29,06,54,9.60
2009,05,29,06,55,9.60
2009,05,29,06,56,9.60
2009,05,29,06,57,9.60
2009,05,29,06,58,9.60
2009,05,29,06,59,9.60
2009,05,29,07,00,9.60
2009,05,29,07,01,9.60
2009,05,29,07,02,9.60
2009,05,29,07,03,9.60
2009,05,29,07,04,9.60
2009,05,29,07,05,9.60
2009,05,29,07,06,9.70
2009,05,29,07,07,9.70
2009,05,29,07,08,9.70
2009,05,29,07,09,9.70
2009,05,29,07,10,9.70
2009,05,29,07,11,9.70
2009,05,29,07,12,9.80
2009,05,29,07,13,9.80
2009,05,29,07,14,9.80
2009,05,29,07,15,9.80
2009,05,29,07,16,9.80
2009,05,29,07,17,9.80
2009,05,29,07,18,9.80
2009,05,29,07,19,9.90
2009,05,29,07,20,9.90
2009,05,29,07,21,9.90
2009,05,29,07,22,9.90
2009,05,29,07,23,10.00
2009,05,29,07,24,10.00
2009,05,29,07,25,10.00
2009,05,29,07,26,10.10
2009,05,29,07,27,10.10
2009,05,29,07,28,10.10
2009,05,29,07,29,10.10
2009,05,29,07,30,10.20
2009,05,29,07,31,10.20
2009,05,29,07,32,10.20
2009,05,29,07,33,10.30
2009,05,29,07,34,10.30
2009,05,29,07,35,10.40
2009,05,29,07,36,10.40
2009,05,29,07,37,10.50
2009,05,29,07,38,10.50
2009,05,29,07,39,10.60
2009,05,29,07,40,10.60
2009,05,29,07,41,10.70
2009,05,29,07,42,10.70
2009,05,29,07,43,10.70
2009,05,29,07,44,10.80
2009,05,29,07,45,10.80
2009,05,29,07,46,10.90
2009,05,29,07,47,10.90
2009,05,29,07,48,11.00
2009,05,29,07,49,11.10
2009,05,29,07,50,11.20
2009,05,29,07,51,11.20
2009,05,29,07,52,11.30
2009,05,29,07,53,11.40
2009,05,29,07,54,11.50
2009,05,29,07,55,11.50
2009,05,29,07,56,11.60
2009,05,29,07,57,11.60
2009,05,29,07,58,11.70
2009,05,29,07,59,11.70
2009,05,29,08,00,11.80
2009,05,29,08,01,11.80
2009,05,29,08,02,11.90
2009,05,29,08,03,11.90
2009,05,29,08,04,12.00
2009,05,29,08,05,12.00
2009,05,29,08,06,12.10
2009,05,29,08,07,12.10
2009,05,29,08,08,12.10
2009,05,29,08,09,12.20
2009,05,29,08,10,12.20
2009,05,29,08,11,12.20
2009,05,29,08,12,12.30
2009,05,29,08,13,12.30
2009,05,29,08,14,12.40
2009,05,29,08,15,12.40
2009,05,29,08,16,12.50
2009,05,29,08,17,12.50
2009,05,29,08,18,12.60
2009,05,29,08,19,12.60
2009,05,29,08,20,12.70
2009,05,29,08,21,12.70
2009,05,29,08,22,12.80
2009,05,29,08,23,12.80
2009,05,29,08,24,12.80
2009,05,29,08,25,12.90
2009,05,29,08,26,12.90
2009,05,29,08,27,12.90
2009,05,29,08,28,13.00
2009,05,29,08,29,13.00
2009,05,29,08,30,13.10
2009,05,29,08,31,13.10
2009,05,29,08,32,13.20
2009,05,29,08,33,13.20
2009,05,29,08,34,13.30
2009,05,29,08,35,13.30
2009,05,29,08,36,13.30
2009,05,29,08,37,13.40
2009,05,29,08,38,13.40
2009,05,29,08,39,13.40
2009,05,29,08,40,13.50
2009,05,29,08,41,13.60
2009,05,29,08,42,13.60
2009,05,29,08,43,13.70
2009,05,29,08,44,13.80
2009,05,29,08,45,13.90
2009,05,29,08,46,13.90
2009,05,29,08,47,14.00
2009,05,29,08,48,14.10
2009,05,29,08,49,14.10
2009,05,29,08,50,14.20
2009,05,29,08,51,14.20
2009,05,29,08,52,14.30
2009,05,29,08,53,14.30
2009,05,29,08,54,14.30
2009,05,29,08,55,14.40
2009,05,29,08,56,14.40
2009,05,29,08,57,14.40
2009,05,29,08,58,14.50
2009,05,29,08,59,14.50
2009,05,29,09,00,14.60
2009,05,29,09,01,14.60
2009,05,29,09,02,14.70
2009,05,29,09,03,14.80
2009,05,29,09,04,14.80
2009,05,29,09,05,15.00
2009,05,29,09,06,15.00
2009,05,29,09,07,15.00
2009,05,29,09,08,15.00
2009,05,29,09,09,15.00
2009,05,29,09,10,15.10
2009,05,29,09,11,15.20
2009,05,29,09,12,15.30
2009,05,29,09,13,15.40
2009,05,29,09,14,15.40
2009,05,29,09,15,15.50
2009,05,29,09,16,15.60
2009,05,29,09,17,15.60
2009,05,29,09,18,15.70
2009,05,29,09,19,15.70
2009,05,29,09,20,15.80
2009,05,29,09,21,15.80
2009,05,29,09,22,15.90
2009,05,29,09,23,15.90
2009,05,29,09,24,16.00
2009,05,29,09,25,16.00
2009,05,29,09,26,16.10
2009,05,29,09,27,16.10
2009,05,29,09,28,16.20
2009,05,29,09,29,16.30
2009,05,29,09,30,16.40
2009,05,29,09,31,16.50
2009,05,29,09,32,16.60
2009,05,29,09,33,16.60
2009,05,29,09,34,16.70
2009,05,29,09,35,16.80
2009,05,29,09,36,16.80
2009,05,29,09,37,16.80
2009,05,29,09,38,16.90
2009,05,29,09,39,17.00
2009,05,29,09,40,17.00
2009,05,29,09,41,17.10
2009,05,29,09,42,17.20
2009,05,29,09,43,17.20
2009,05,29,09,44,17.20
2009,05,29,09,45,17.30
2009,05,29,09,46,17.30
2009,05,29,09,47,17.40
2009,05,29,09,48,17.40
2009,05,29,09,49,17.40
2009,05,29,09,50,17.50
2009,05,29,09,51,17.60
2009,05,29,09,52,17.60
2009,05,29,09,53,17.60
2009,05,29,09,54,17.70
2009,05,29,09,55,17.70
2009,05,29,09,56,17.80
2009,05,29,09,57,17.80
2009,05,29,09,58,17.90
2009,05,29,09,59,18.00
2009,05,29,10,00,18.00
2009,05,29,10,01,18.10
2009,05,29,10,02,18.20
2009,05,29,10,03,18.20
2009,05,29,10,04,18.30
2009,05,29,10,05,18.30
2009,05,29,10,06,18.40
2009,05,29,10,07,18.50
2009,05,29,10,08,18.60
2009,05,29,10,09,18.60
2009,05,29,10,10,18.70
2009,05,29,10,11,18.80
2009,05,29,10,12,18.80
2009,05,29,10,13,18.90
2009,05,29,10,14,18.90
2009,05,29,10,15,19.00
2009,05,29,10,16,19.00
2009,05,29,10,17,19.10
2009,05,29,10,18,19.10
2009,05,29,10,19,19.10
2009,05,29,10,20,19.20
2009,05,29,10,21,19.20
2009,05,29,10,22,19.30
2009,05,29,10,23,19.30
2009,05,29,10,24,19.40
2009,05,29,10,25,19.40
2009,05,29,10,26,19.50
2009,05,29,10,27,19.60
2009,05,29,10,28,19.60
2009,05,29,10,29,19.70
2009,05,29,10,30,19.80
2009,05,29,10,31,19.90
2009,05,29,10,32,19.90
2009,05,29,10,33,20.00
2009,05,29,10,34,20.10
2009,05,29,10,35,20.20
2009,05,29,10,36,20.30
2009,05,29,10,37,20.30
2009,05,29,10,38,20.40
2009,05,29,10,39,20.50
2009,05,29,10,40,20.50
2009,05,29,10,41,20.60
2009,05,29,10,42,20.70
2009,05,29,10,43,20.80
2009,05,29,10,44,20.90
2009,05,29,10,45,21.00
2009,05,29,10,46,21.20
2009,05,29,10,47,21.30
2009,05,29,10,48,21.40
2009,05,29,10,49,21.60
2009,05,29,10,50,21.70
2009,05,29,10,51,21.90
2009,05,29,10,52,22.00
2009,05,29,10,53,22.20
2009,05,29,10,54,22.30
2009,05,29,10,55,22.30
2009,05,29,10,56,22.50
2009,05,29,10,57,22.60
2009,05,29,10,58,22.70
2009,05,29,10,59,22.80
2009,05,29,11,00,22.90
2009,05,29,11,01,23.00
2009,05,29,11,02,23.00
2009,05,29,11,03,23.20
2009,05,29,11,04,23.20
2009,05,29,11,05,23.30
2009,05,29,11,06,23.40
2009,05,29,11,07,23.50
2009,05,29,11,08,23.60
2009,05,29,11,09,23.70
2009,05,29,11,10,23.80
2009,05,29,11,11,23.90
2009,05,29,11,12,24.00
2009,05,29,11,13,24.10
2009,05,29,11,14,24.20
2009,05,29,11,15,24.30
2009,05,29,11,16,24.50
2009,05,29,11,17,24.60
2009,05,29,11,18,24.70
2009,05,29,11,19,24.80
2009,05,29,11,20,25.00
2009,05,29,11,21,25.10
2009,05,29,11,22,25.20
2009,05,29,11,23,25.20
2009,05,29,11,24,25.30
2009,05,29,11,25,25.30
2009,05,29,11,26,25.40
2009,05,29,11,27,25.40
2009,05,29,11,28,25.40
2009,05,29,11,29,25.50
2009,05,29,11,30,25.50
2009,05,29,11,31,25.60
2009,05,29,11,32,25.60
2009,05,29,11,33,25.60
2009,05,29,11,34,25.60
2009,05,29,11,35,25.70
2009,05,29,11,36,25.70
2009,05,29,11,37,25.80
2009,05,29,11,38,25.90
2009,05,29,11,39,25.90
2009,05,29,11,40,26.00
2009,05,29,11,41,26.10
2009,05,29,11,42,26.20
2009,05,29,11,43,26.30
2009,05,29,11,44,26.40
2009,05,29,11,45,26.40
2009,05,29,11,46,26.50
2009,05,29,11,47,26.60
2009,05,29,11,48,26.70
2009,05,29,11,49,26.70
2009,05,29,11,50,26.70
2009,05,29,11,51,26.70
2009,05,29,11,52,26.70
2009,05,29,11,53,26.80
2009,05,29,11,54,26.80
2009,05,29,11,55,26.80
2009,05,29,11,56,26.80
2009,05,29,11,57,26.80
2009,05,29,11,58,26.90
2009,05,29,11,59,27.00
2009,05,29,12,00,27.10
2009,05,29,12,01,27.10
2009,05,29,12,02,27.10
2009,05,29,12,03,27.10
2009,05,29,12,04,27.20
2009,05,29,12,05,27.30
2009,05,29,12,06,27.30
2009,05,29,12,07,27.30
2009,05,29,12,08,27.20
2009,05,29,12,09,27.20
2009,05,29,12,10,27.10
2009,05,29,12,11,27.00
2009,05,29,12,12,26.90
2009,05,29,12,13,26.90
2009,05,29,12,14,26.90
2009,05,29,12,15,27.00
2009,05,29,12,16,27.00
2009,05,29,12,17,27.00
2009,05,29,12,18,27.10
2009,05,29,12,19,27.10
2009,05,29,12,20,27.20
2009,05,29,12,21,27.20
2009,05,29,12,22,27.30
2009,05,29,12,23,27.40
2009,05,29,12,24,27.60
2009,05,29,12,25,27.70
2009,05,29,12,26,27.80
2009,05,29,12,27,27.80
2009,05,29,12,28,27.80
2009,05,29,12,29,27.80
2009,05,29,12,30,27.90
2009,05,29,12,31,27.90
2009,05,29,12,32,27.90
2009,05,29,12,33,27.90
2009,05,29,12,34,28.00
2009,05,29,12,35,28.00
2009,05,29,12,36,28.10
2009,05,29,12,37,28.10
2009,05,29,12,38,28.10
2009,05,29,12,39,28.10
2009,05,29,12,40,28.20
2009,05,29,12,41,28.20
2009,05,29,12,42,28.20
2009,05,29,12,43,28.20
2009,05,29,12,44,28.20
2009,05,29,12,45,28.20
2009,05,29,12,46,28.20
2009,05,29,12,47,28.20
2009,05,29,12,48,28.30
2009,05,29,12,49,28.20
2009,05,29,12,50,28.10
2009,05,29,12,51,28.00
2009,05,29,12,52,27.90
2009,05,29,12,53,27.90
2009,05,29,12,54,27.80
2009,05,29,12,55,27.80
2009,05,29,12,56,27.80
2009,05,29,12,57,27.90
2009,05,29,12,58,27.90
2009,05,29,12,59,28.00
2009,05,29,13,00,28.10
2009,05,29,13,01,28.10
2009,05,29,13,02,28.20
2009,05,29,13,03,28.20
2009,05,29,13,04,28.20
2009,05,29,13,05,28.20
2009,05,29,13,06,28.20
2009,05,29,13,07,28.10
2009,05,29,13,08,28.00
2009,05,29,13,09,28.00
2009,05,29,13,10,27.90
2009,05,29,13,11,27.90
2009,05,29,13,12,27.80
2009,05,29,13,13,27.90
2009,05,29,13,14,27.90
2009,05,29,13,15,27.90
2009,05,29,13,16,27.90
2009,05,29,13,17,27.90
2009,05,29,13,18,28.00
2009,05,29,13,19,28.00
2009,05,29,13,20,28.10
2009,05,29,13,21,28.20
2009,05,29,13,22,28.20
2009,05,29,13,23,28.30
2009,05,29,13,24,28.40
2009,05,29,13,25,28.40
2009,05,29,13,26,28.50
2009,05,29,13,27,28.50
2009,05,29,13,28,28.40
2009,05,29,13,29,28.20
2009,05,29,13,30,28.20
2009,05,29,13,31,28.10
2009,05,29,13,32,28.00
2009,05,29,13,33,27.90
2009,05,29,13,34,27.80
2009,05,29,13,35,27.70
2009,05,29,13,36,27.70
2009,05,29,13,37,27.60
2009,05,29,13,38,27.60
2009,05,29,13,39,27.70
2009,05,29,13,40,27.70
2009,05,29,13,41,27.70
2009,05,29,13,42,27.70
2009,05,29,13,43,27.80
2009,05,29,13,44,27.80
2009,05,29,13,45,27.80
2009,05,29,13,46,27.80
2009,05,29,13,47,27.80
2009,05,29,13,48,27.90
2009,05,29,13,49,28.00
2009,05,29,13,50,28.10
2009,05,29,13,51,28.20
2009,05,29,13,52,28.30
2009,05,29,13,53,28.40
2009,05,29,13,54,28.50
2009,05,29,13,55,28.60
2009,05,29,13,56,28.60
2009,05,29,13,57,28.70
2009,05,29,13,58,28.70
2009,05,29,13,59,28.70
2009,05,29,14,00,28.70
2009,05,29,14,01,28.60
2009,05,29,14,02,28.50
2009,05,29,14,03,28.40
2009,05,29,14,04,28.30
2009,05,29,14,05,28.20
2009,05,29,14,06,28.10
2009,05,29,14,07,27.90
2009,05,29,14,08,27.90
2009,05,29,14,09,27.90
2009,05,29,14,10,27.90
2009,05,29,14,11,27.90
2009,05,29,14,12,27.90
2009,05,29,14,13,27.80
2009,05,29,14,14,27.80
2009,05,29,14,15,27.70
2009,05,29,14,16,27.70
2009,05,29,14,17,27.70
2009,05,29,14,18,27.80
2009,05,29,14,19,27.90
2009,05,29,14,20,28.10
2009,05,29,14,21,28.20
2009,05,29,14,22,28.30
2009,05,29,14,23,28.30
2009,05,29,14,24,28.30
2009,05,29,14,25,28.30
2009,05,29,14,26,28.30
2009,05,29,14,27,28.40
2009,05,29,14,28,28.40
2009,05,29,14,29,28.40
2009,05,29,14,30,28.40
2009,05,29,14,31,28.20
2009,05,29,14,32,28.10
2009,05,29,14,33,28.10
2009,05,29,14,34,28.10
2009,05,29,14,35,28.10
2009,05,29,14,36,28.00
2009,05,29,14,37,28.00
2009,05,29,14,38,28.00
2009,05,29,14,39,28.00
2009,05,29,14,40,27.90
2009,05,29,14,41,27.90
2009,05,29,14,42,27.80
2009,05,29,14,43,27.70
2009,05,29,14,44,27.70
2009,05,29,14,45,27.70
2009,05,29,14,46,27.70
2009,05,29,14,47,27.70
2009,05,29,14,48,27.80
2009,05,29,14,49,27.90
2009,05,29,14,50,28.10
2009,05,29,14,51,28.20
2009,05,29,14,52,28.30
2009,05,29,14,53,28.40
2009,05,29,14,54,28.60
2009,05,29,14,55,28.80
2009,05,29,14,56,29.00
2009,05,29,14,57,29.20
2009,05,29,14,58,29.30
2009,05,29,14,59,29.50
2009,05,29,15,00,29.50
2009,05,29,15,01,29.60
2009,05,29,15,02,29.60
2009,05,29,15,03,29.70
2009,05,29,15,04,29.80
2009,05,29,15,05,29.80
2009,05,29,15,06,29.90
2009,05,29,15,07,29.90
2009,05,29,15,08,29.90
2009,05,29,15,09,29.90
2009,05,29,15,10,29.90
2009,05,29,15,11,29.90
2009,05,29,15,12,29.90
2009,05,29,15,13,29.90
2009,05,29,15,14,29.90
2009,05,29,15,15,30.00
2009,05,29,15,16,30.00
2009,05,29,15,17,30.00
2009,05,29,15,18,30.00
2009,05,29,15,19,30.10
2009,05,29,15,20,30.10
2009,05,29,15,21,30.10
2009,05,29,15,22,30.10
2009,05,29,15,23,30.10
2009,05,29,15,24,30.10
2009,05,29,15,25,30.10
2009,05,29,15,26,30.10
2009,05,29,15,27,30.10
2009,05,29,15,28,30.10
2009,05,29,15,29,30.20
2009,05,29,15,30,30.20
2009,05,29,15,31,30.20
2009,05,29,15,32,30.20
2009,05,29,15,33,30.20
2009,05,29,15,34,30.10
2009,05,29,15,35,30.00
2009,05,29,15,36,29.90
2009,05,29,15,37,29.80
2009,05,29,15,38,29.70
2009,05,29,15,39,29.60
2009,05,29,15,40,29.60
2009,05,29,15,41,29.50
2009,05,29,15,42,29.40
2009,05,29,15,43,29.40
2009,05,29,15,44,29.40
2009,05,29,15,45,29.50
2009,05,29,15,46,29.50
2009,05,29,15,47,29.60
2009,05,29,15,48,29.70
2009,05,29,15,49,29.80
2009,05,29,15,50,29.90
2009,05,29,15,51,29.90
2009,05,29,15,52,30.00
2009,05,29,15,53,30.00
2009,05,29,15,54,30.00
2009,05,29,15,55,29.90
2009,05,29,15,56,29.80
2009,05,29,15,57,29.80
2009,05,29,15,58,29.80
2009,05,29,15,59,29.80
2009,05,29,16,00,29.80
2009,05,29,16,01,29.90
2009,05,29,16,02,29.90
2009,05,29,16,03,29.90
2009,05,29,16,04,29.90
2009,05,29,16,05,29.90
2009,05,29,16,06,29.90
2009,05,29,16,07,30.00
2009,05,29,16,08,30.00
2009,05,29,16,09,30.10
2009,05,29,16,10,30.10
2009,05,29,16,11,30.10
2009,05,29,16,12,30.00
2009,05,29,16,13,30.00
2009,05,29,16,14,29.90
2009,05,29,16,15,29.80
2009,05,29,16,16,29.60
2009,05,29,16,17,29.60
2009,05,29,16,18,29.50
2009,05,29,16,19,29.50
2009,05,29,16,20,29.60
2009,05,29,16,21,29.60
2009,05,29,16,22,29.60
2009,05,29,16,23,29.60
2009,05,29,16,24,29.50
2009,05,29,16,25,29.50
2009,05,29,16,26,29.40
2009,05,29,16,27,29.40
2009,05,29,16,28,29.40
2009,05,29,16,29,29.40
2009,05,29,16,30,29.30
2009,05,29,16,31,29.20
2009,05,29,16,32,29.20
2009,05,29,16,33,29.10
2009,05,29,16,34,28.90
2009,05,29,16,35,28.80
2009,05,29,16,36,28.70
2009,05,29,16,37,28.70
2009,05,29,16,38,28.60
2009,05,29,16,39,28.50
2009,05,29,16,40,28.40
2009,05,29,16,41,28.40
2009,05,29,16,42,28.40
2009,05,29,16,43,28.40
2009,05,29,16,44,28.50
2009,05,29,16,45,28.50
2009,05,29,16,46,28.60
2009,05,29,16,47,28.60
2009,05,29,16,48,28.80
2009,05,29,16,49,28.80
2009,05,29,16,50,29.00
2009,05,29,16,51,29.10
2009,05,29,16,52,29.10
2009,05,29,16,53,29.20
2009,05,29,16,54,29.20
2009,05,29,16,55,29.10
2009,05,29,16,56,29.10
2009,05,29,16,57,29.00
2009,05,29,16,58,29.00
2009,05,29,16,59,29.00
2009,05,29,17,00,29.00
2009,05,29,17,01,29.00
2009,05,29,17,02,29.00
2009,05,29,17,03,28.90
2009,05,29,17,04,28.80
2009,05,29,17,05,28.90
2009,05,29,17,06,28.90
2009,05,29,17,07,28.90
2009,05,29,17,08,29.00
2009,05,29,17,09,29.10
2009,05,29,17,10,29.10
2009,05,29,17,11,29.10
2009,05,29,17,12,29.20
2009,05,29,17,13,29.20
2009,05,29,17,14,29.30
2009,05,29,17,15,29.20
2009,05,29,17,16,29.20
2009,05,29,17,17,29.10
2009,05,29,17,18,29.00
2009,05,29,17,19,28.80
2009,05,29,17,20,28.70
2009,05,29,17,21,28.60
2009,05,29,17,22,28.50
2009,05,29,17,23,28.30
2009,05,29,17,24,28.20
2009,05,29,17,25,28.20
2009,05,29,17,26,28.10
2009,05,29,17,27,28.10